• în Republica Moldova
  • Lista ţărilor
  • Pe 7 zile
  • Temperatura apei
  • Hartă satelitară
  • Meteo pe hartă
  • Widget-uri
  • user-avatar
    Intrare

    Meteo pe oră la Ganja

    Astăzi, 27 Iunie, Marţi

    Timp Temperatura Precipitaţii Vânt Presiune Umiditate
    00:00 +21°C° 0 mm 3 m/s 727 mmHg 75%
    01:00 +20°C° 0 mm 2 m/s 727 mmHg 77%
    02:00 +19°C° 0 mm 2 m/s 727 mmHg 79%
    03:00 +20°C° 0 mm 1 m/s 726 mmHg 83%
    04:00 +21°C° 0 mm 1 m/s 726 mmHg 81%
    05:00 +22°C° 0 mm 1 m/s 726 mmHg 79%
    06:00 +23°C° 0 mm 1 m/s 726 mmHg 77%
    07:00 +24°C° 0 mm 1 m/s 726 mmHg 71%
    08:00 +26°C° 0 mm 2 m/s 726 mmHg 66%
    09:00 +27°C° 0 mm 2 m/s 726 mmHg 60%
    10:00 +29°C° 0 mm 2 m/s 725 mmHg 56%
    11:00 +30°C° 0 mm 2 m/s 725 mmHg 52%
    12:00 +31°C° 0 mm 3 m/s 724 mmHg 49%
    13:00 +33°C° 0 mm 3 m/s 724 mmHg 48%
    14:00 +33°C° 0 mm 3 m/s 723 mmHg 47%
    15:00 +34°C° 0 mm 3 m/s 723 mmHg 46%
    16:00 +33°C° 0 mm 3 m/s 723 mmHg 48%
    17:00 +33°C° 0 mm 3 m/s 723 mmHg 50%
    18:00 +31°C° 0 mm 3 m/s 723 mmHg 52%
    19:00 +29°C° 0 mm 3 m/s 723 mmHg 57%
    20:00 +27°C° 0 mm 2 m/s 723 mmHg 62%
    21:00 +25°C° 0 mm 2 m/s 723 mmHg 67%
    22:00 +24°C° 0 mm 2 m/s 723 mmHg 70%
    23:00 +24°C° 0 mm 2 m/s 723 mmHg 73%

    Mâine, 28 Iunie, Miercuri

    Timp Temperatura Precipitaţii Vânt Presiune Umiditate
    00:00 +23°C° 0 mm 1 m/s 723 mmHg 76%
    01:00 +22°C° 0 mm 1 m/s 723 mmHg 78%
    02:00 +20°C° 0 mm 0 m/s 723 mmHg 81%
    03:00 +19°C° 0 mm 0 m/s 723 mmHg 83%
    04:00 +21°C° 0 mm 0 m/s 723 mmHg 80%
    05:00 +24°C° 0 mm 1 m/s 723 mmHg 77%
    06:00 +25°C° 0 mm 1 m/s 723 mmHg 74%
    07:00 +27°C° 0 mm 1 m/s 723 mmHg 67%
    08:00 +29°C° 0 mm 1 m/s 723 mmHg 60%
    09:00 +30°C° 0 mm 2 m/s 723 mmHg 53%
    10:00 +32°C° 0 mm 2 m/s 723 mmHg 49%
    11:00 +34°C° 0 mm 2 m/s 722 mmHg 45%
    12:00 +35°C° 0 mm 2 m/s 722 mmHg 42%
    13:00 +35°C° 0,1 mm 2 m/s 722 mmHg 41%
    14:00 +36°C° 0,1 mm 3 m/s 721 mmHg 40%
    15:00 +36°C° 0,1 mm 3 m/s 721 mmHg 40%
    16:00 +36°C° 0,1 mm 3 m/s 721 mmHg 41%
    17:00 +35°C° 0,1 mm 3 m/s 721 mmHg 43%
    18:00 +35°C° 0,1 mm 2 m/s 721 mmHg 45%
    19:00 +31°C° 0 mm 2 m/s 721 mmHg 49%
    20:00 +29°C° 0 mm 2 m/s 722 mmHg 53%
    21:00 +27°C° 0 mm 2 m/s 722 mmHg 58%
    22:00 +26°C° 0 mm 2 m/s 722 mmHg 59%
    23:00 +26°C° 0 mm 2 m/s 722 mmHg 60%

    Poimâine, 29 Iunie, Joi

    Timp Temperatura Precipitaţii Vânt Presiune Umiditate
    00:00 +25°C° 0 mm 2 m/s 722 mmHg 61%
    01:00 +24°C° 0 mm 1 m/s 722 mmHg 62%
    02:00 +24°C° 0 mm 1 m/s 722 mmHg 64%
    03:00 +23°C° 0 mm 1 m/s 722 mmHg 66%
    04:00 +24°C° 0 mm 1 m/s 722 mmHg 63%
    05:00 +26°C° 0 mm 1 m/s 722 mmHg 60%
    06:00 +27°C° 0 mm 1 m/s 723 mmHg 57%
    07:00 +28°C° 0 mm 1 m/s 723 mmHg 52%
    08:00 +30°C° 0 mm 1 m/s 723 mmHg 46%
    09:00 +31°C° 0 mm 1 m/s 723 mmHg 41%
    10:00 +32°C° 0 mm 2 m/s 722 mmHg 39%
    11:00 +34°C° 0 mm 2 m/s 722 mmHg 36%
    12:00 +35°C° 0 mm 3 m/s 722 mmHg 34%
    13:00 +36°C° 0 mm 3 m/s 722 mmHg 33%
    14:00 +36°C° 0 mm 3 m/s 721 mmHg 32%
    15:00 +37°C° 0 mm 4 m/s 721 mmHg 31%
    16:00 +36°C° 0,1 mm 3 m/s 721 mmHg 33%
    17:00 +35°C° 0,1 mm 3 m/s 721 mmHg 36%
    18:00 +35°C° 0,1 mm 3 m/s 721 mmHg 38%
    19:00 +31°C° 0 mm 3 m/s 721 mmHg 41%
    20:00 +29°C° 0 mm 3 m/s 722 mmHg 44%
    21:00 +27°C° 0 mm 3 m/s 722 mmHg 47%
    22:00 +26°C° 0 mm 2 m/s 722 mmHg 47%
    23:00 +26°C° 0 mm 2 m/s 722 mmHg 46%

    30 Iunie, Vineri

    Timp Temperatura Precipitaţii Vânt Presiune Umiditate
    00:00 +25°C° 0 mm 2 m/s 722 mmHg 46%
    01:00 +24°C° 0 mm 2 m/s 722 mmHg 47%
    02:00 +24°C° 0 mm 1 m/s 722 mmHg 48%
    03:00 +23°C° 0 mm 1 m/s 722 mmHg 49%
    04:00 +24°C° 0 mm 1 m/s 722 mmHg 48%
    05:00 +25°C° 0 mm 1 m/s 723 mmHg 48%
    06:00 +26°C° 0 mm 2 m/s 723 mmHg 47%
    07:00 +28°C° 0 mm 2 m/s 723 mmHg 42%
    08:00 +29°C° 0 mm 2 m/s 723 mmHg 36%
    09:00 +31°C° 0 mm 3 m/s 723 mmHg 31%
    10:00 +32°C° 0 mm 2 m/s 723 mmHg 29%
    11:00 +34°C° 0 mm 2 m/s 723 mmHg 27%
    12:00 +35°C° 0 mm 2 m/s 722 mmHg 25%
    13:00 +35°C° 0 mm 2 m/s 722 mmHg 25%
    14:00 +36°C° 0 mm 2 m/s 722 mmHg 24%
    15:00 +36°C° 0 mm 3 m/s 722 mmHg 24%
    16:00 +36°C° 0 mm 2 m/s 722 mmHg 26%
    17:00 +35°C° 0 mm 2 m/s 722 mmHg 29%
    18:00 +34°C° 0 mm 2 m/s 722 mmHg 31%
    19:00 +31°C° 0 mm 2 m/s 723 mmHg 33%
    20:00 +29°C° 0 mm 3 m/s 723 mmHg 34%
    21:00 +27°C° 0 mm 3 m/s 723 mmHg 36%
    22:00 +26°C° 0 mm 3 m/s 724 mmHg 37%
    23:00 +25°C° 0 mm 3 m/s 724 mmHg 38%

    1 Iulie, Sâmbătă

    Timp Temperatura Precipitaţii Vânt Presiune Umiditate
    00:00 +25°C° 0 mm 2 m/s 724 mmHg 39%
    01:00 +24°C° 0 mm 2 m/s 724 mmHg 40%
    02:00 +24°C° 0 mm 2 m/s 724 mmHg 41%
    03:00 +23°C° 0 mm 2 m/s 724 mmHg 42%
    04:00 +24°C° 0 mm 2 m/s 725 mmHg 42%
    05:00 +24°C° 0 mm 2 m/s 725 mmHg 43%
    06:00 +25°C° 0 mm 2 m/s 725 mmHg 43%
    07:00 +27°C° 0 mm 2 m/s 726 mmHg 38%
    08:00 +29°C° 0 mm 2 m/s 726 mmHg 33%
    09:00 +31°C° 0 mm 2 m/s 726 mmHg 29%
    10:00 +32°C° 0 mm 2 m/s 726 mmHg 27%
    11:00 +34°C° 0 mm 2 m/s 725 mmHg 25%
    12:00 +35°C° 0 mm 2 m/s 725 mmHg 24%
    13:00 +36°C° 0 mm 3 m/s 725 mmHg 23%
    14:00 +37°C° 0 mm 4 m/s 725 mmHg 23%
    15:00 +37°C° 0 mm 5 m/s 724 mmHg 22%
    16:00 +36°C° 0 mm 5 m/s 724 mmHg 25%
    17:00 +36°C° 0 mm 5 m/s 725 mmHg 27%
    18:00 +35°C° 0 mm 5 m/s 725 mmHg 29%
    19:00 +33°C° 0 mm 5 m/s 725 mmHg 31%
    20:00 +29°C° 0 mm 4 m/s 725 mmHg 34%
    21:00 +27°C° 0 mm 4 m/s 726 mmHg 36%
    22:00 +26°C° 0 mm 4 m/s 726 mmHg 37%
    23:00 +26°C° 0 mm 3 m/s 726 mmHg 38%

    2 Iulie, Duminică

    Timp Temperatura Precipitaţii Vânt Presiune Umiditate
    00:00 +25°C° 0 mm 3 m/s 726 mmHg 39%
    01:00 +24°C° 0 mm 2 m/s 725 mmHg 38%
    02:00 +24°C° 0 mm 2 m/s 725 mmHg 38%
    03:00 +23°C° 0 mm 2 m/s 725 mmHg 38%
    04:00 +24°C° 0 mm 2 m/s 725 mmHg 39%
    05:00 +25°C° 0 mm 2 m/s 725 mmHg 40%
    06:00 +25°C° 0 mm 2 m/s 726 mmHg 41%
    07:00 +27°C° 0 mm 2 m/s 725 mmHg 36%
    08:00 +29°C° 0 mm 1 m/s 725 mmHg 32%
    09:00 +31°C° 0 mm 1 m/s 725 mmHg 28%
    10:00 +32°C° 0 mm 2 m/s 725 mmHg 26%
    11:00 +35°C° 0 mm 2 m/s 724 mmHg 25%
    12:00 +36°C° 0 mm 3 m/s 724 mmHg 23%
    13:00 +37°C° 0 mm 3 m/s 723 mmHg 23%
    14:00 +37°C° 0 mm 4 m/s 723 mmHg 23%
    15:00 +38°C° 0 mm 4 m/s 722 mmHg 22%
    16:00 +37°C° 0 mm 4 m/s 722 mmHg 25%
    17:00 +37°C° 0 mm 3 m/s 722 mmHg 27%
    18:00 +36°C° 0 mm 3 m/s 722 mmHg 30%
    19:00 +33°C° 0 mm 3 m/s 722 mmHg 32%
    20:00 +30°C° 0 mm 3 m/s 723 mmHg 34%
    21:00 +28°C° 0 mm 3 m/s 723 mmHg 36%
    22:00 +27°C° 0,1 mm 3 m/s 723 mmHg 39%
    23:00 +26°C° 0,1 mm 2 m/s 722 mmHg 41%
    Arată mai mult